| time (UTC) | temp F | wind direction | speed MPH | gust MPH | rain 1hr in | rain 24hr in | rain mn in | humidity % | barometer mb |
| 20260505010717 | 63 | 0.0 | 0.0 | 0.00 | 0.00 | 0.00 | 66 | 1016.8 | |
| 20260505005717 | 64 | 0.0 | 0.0 | 0.00 | 0.00 | 0.00 | 65 | 1016.8 | |
| 20260505004716 | 65 | 0.0 | 0.0 | 0.00 | 0.00 | 0.00 | 64 | 1016.6 | |
| 20260505003716 | 66 | 0.0 | 0.0 | 0.00 | 0.00 | 0.00 | 62 | 1016.6 | |
| 20260505002739 | 66 | 0.0 | 0.0 | 0.00 | 0.00 | 0.00 | 60 | 1016.4 | |
| 20260505001719 | 67 | 0.0 | 0.0 | 0.00 | 0.00 | 0.00 | 58 | 1016.4 | |
| 20260505000718 | 68 | 0.0 | 0.0 | 0.00 | 0.00 | 0.00 | 56 | 1016.4 | |
| 20260504235719 | 69 | 0.0 | 0.0 | 0.00 | 0.00 | 0.00 | 54 | 1016.3 | |
| 20260504234718 | 70 | 0.0 | 0.0 | 0.00 | 0.00 | 0.00 | 52 | 1016.0 | |
| 20260504233718 | 70 | 0.0 | 1.0 | 0.00 | 0.00 | 0.00 | 51 | 1016.0 | |
| 20260504232717 | 70 | 0.0 | 0.0 | 0.00 | 0.00 | 0.00 | 48 | 1016.0 | |
| 20260504231719 | 71 | 0.0 | 0.0 | 0.00 | 0.00 | 0.00 | 49 | 1015.9 | |
| 20260504230719 | 71 | 0.0 | 1.0 | 0.00 | 0.00 | 0.00 | 49 | 1015.9 | |
| 20260504225718 | 72 | 45 | 1.0 | 2.0 | 0.00 | 0.00 | 0.00 | 48 | 1015.8 |
| 20260504224758 | 72 | 0.0 | 1.0 | 0.00 | 0.00 | 0.00 | 46 | 1015.9 | |
| 20260504223718 | 73 | 158 | 2.0 | 5.0 | 0.00 | 0.00 | 0.00 | 44 | 1015.8 |
| 20260504222718 | 74 | 23 | 1.0 | 2.0 | 0.00 | 0.00 | 0.00 | 43 | 1015.9 |
| 20260504220758 | 75 | 23 | 1.0 | 2.0 | 0.00 | 0.00 | 0.00 | 44 | 1016.0 |
| 20260504215738 | 75 | 180 | 1.0 | 1.0 | 0.00 | 0.00 | 0.00 | 44 | 1015.9 |
| 20260504214738 | 77 | 45 | 1.0 | 3.0 | 0.00 | 0.00 | 0.00 | 43 | 1015.9 |
| 20260504213717 | 77 | 135 | 1.0 | 3.0 | 0.00 | 0.00 | 0.00 | 42 | 1016.0 |
| 20260504212719 | 77 | 23 | 1.0 | 2.0 | 0.00 | 0.00 | 0.00 | 43 | 1015.8 |
| 20260504211718 | 78 | 158 | 1.0 | 2.0 | 0.00 | 0.00 | 0.00 | 40 | 1015.8 |
| 20260504210819 | 79 | 158 | 1.0 | 3.0 | 0.00 | 0.00 | 0.00 | 40 | 1015.9 |
| 20260504205718 | 79 | 158 | 2.0 | 6.0 | 0.00 | 0.00 | 0.00 | 40 | 1015.7 |
| 20260504204719 | 79 | 180 | 1.0 | 1.0 | 0.00 | 0.00 | 0.00 | 40 | 1015.9 |
| 20260504203718 | 80 | 158 | 2.0 | 5.0 | 0.00 | 0.00 | 0.00 | 38 | 1016.0 |
| 20260504202718 | 80 | 158 | 1.0 | 2.0 | 0.00 | 0.00 | 0.00 | 40 | 1016.2 |
| 20260504201717 | 81 | 158 | 1.0 | 2.0 | 0.00 | 0.00 | 0.00 | 37 | 1016.1 |
| 20260504200758 | 81 | 158 | 2.0 | 2.0 | 0.00 | 0.00 | 0.00 | 36 | 1016.1 |
| 20260504195758 | 82 | 0.0 | 0.0 | 0.00 | 0.00 | 0.00 | 35 | 1016.2 | |
| 20260504194717 | 82 | 0.0 | 1.0 | 0.00 | 0.00 | 0.00 | 36 | 1016.2 | |
| 20260504193739 | 82 | 68 | 1.0 | 2.0 | 0.00 | 0.00 | 0.00 | 32 | 1016.4 |
| 20260504192718 | 82 | 23 | 1.0 | 2.0 | 0.00 | 0.00 | 0.00 | 31 | 1016.6 |
| 20260504191737 | 81 | 0.0 | 1.0 | 0.00 | 0.00 | 0.00 | 32 | 1016.7 | |
| 20260504190718 | 81 | 23 | 1.0 | 2.0 | 0.00 | 0.00 | 0.00 | 34 | 1016.8 |
| 20260504185718 | 82 | 45 | 3.0 | 6.0 | 0.00 | 0.00 | 0.00 | 30 | 1016.8 |
| 20260504184718 | 81 | 68 | 1.0 | 1.0 | 0.00 | 0.00 | 0.00 | 33 | 1016.9 |
| 20260504183718 | 80 | 0 | 1.0 | 2.0 | 0.00 | 0.00 | 0.00 | 32 | 1016.9 |
| 20260504182758 | 82 | 23 | 2.0 | 2.0 | 0.00 | 0.00 | 0.00 | 32 | 1017.1 |
| 20260504181717 | 81 | 23 | 1.0 | 2.0 | 0.00 | 0.00 | 0.00 | 35 | 1017.0 |
| 20260504180718 | 81 | 0.0 | 1.0 | 0.00 | 0.00 | 0.00 | 33 | 1017.0 | |
| 20260504175718 | 81 | 23 | 1.0 | 2.0 | 0.00 | 0.00 | 0.00 | 37 | 1017.0 |
| 20260504174718 | 80 | 0.0 | 1.0 | 0.00 | 0.00 | 0.00 | 38 | 1017.2 | |
| 20260504173718 | 80 | 0.0 | 1.0 | 0.00 | 0.00 | 0.00 | 39 | 1017.4 | |
| 20260504172718 | 79 | 158 | 1.0 | 2.0 | 0.00 | 0.00 | 0.00 | 36 | 1017.2 |
| 20260504171718 | 79 | 23 | 2.0 | 3.0 | 0.00 | 0.00 | 0.00 | 37 | 1017.4 |
| 20260504170717 | 79 | 0.0 | 1.0 | 0.00 | 0.00 | 0.00 | 33 | 1017.6 | |
| 20260504150718 | 74 | 68 | 1.0 | 1.0 | 0.00 | 0.00 | 0.00 | 48 | 1018.5 |
| 20260504140717 | 70 | 0.0 | 3.0 | 0.00 | 0.00 | 0.00 | 62 | 1018.7 | |
| 20260504130717 | 63 | 0.0 | 2.0 | 0.00 | 0.00 | 0.00 | 82 | 1018.6 | |
| 20260504110718 | 45 | 0.0 | 0.0 | 0.00 | 0.00 | 0.00 | 96 | 1018.2 | |
| 20260504081718 | 47 | 0.0 | 0.0 | 0.00 | 0.00 | 0.00 | 95 | 1018.1 | |
| 20260504080717 | 47 | 0.0 | 0.0 | 0.00 | 0.00 | 0.00 | 95 | 1018.0 | |
| 20260504050117 | 51 | 0.0 | 0.0 | 0.00 | 0.00 | 0.00 | 93 | 1018.7 | |
| 20260504045117 | 52 | 0.0 | 0.0 | 0.00 | 0.00 | 0.00 | 93 | 1018.7 | |
| 20260504044137 | 52 | 0.0 | 0.0 | 0.00 | 0.00 | 0.00 | 93 | 1018.6 | |
| 20260504043118 | 52 | 0.0 | 0.0 | 0.00 | 0.00 | 0.00 | 92 | 1018.7 | |
| 20260504042138 | 52 | 0.0 | 0.0 | 0.00 | 0.00 | 0.00 | 93 | 1018.6 | |
| 20260504041117 | 52 | 0.0 | 0.0 | 0.00 | 0.00 | 0.00 | 92 | 1018.7 | |
| 20260504040117 | 52 | 0.0 | 0.0 | 0.00 | 0.00 | 0.00 | 92 | 1018.7 | |
| 20260504035117 | 52 | 0.0 | 0.0 | 0.00 | 0.00 | 0.00 | 91 | 1018.7 | |
| 20260504034118 | 52 | 0.0 | 0.0 | 0.00 | 0.00 | 0.00 | 91 | 1018.7 | |
| 20260504033118 | 53 | 0.0 | 0.0 | 0.00 | 0.00 | 0.00 | 90 | 1018.7 | |
| 20260504032117 | 53 | 0.0 | 0.0 | 0.00 | 0.00 | 0.00 | 89 | 1018.6 | |
| 20260504031117 | 54 | 0.0 | 0.0 | 0.00 | 0.00 | 0.00 | 89 | 1018.6 | |
| 20260504030117 | 54 | 0.0 | 0.0 | 0.00 | 0.00 | 0.00 | 88 | 1018.6 | |
| 20260504025138 | 54 | 0.0 | 0.0 | 0.00 | 0.00 | 0.00 | 88 | 1018.6 | |
| 20260504024117 | 54 | 0.0 | 0.0 | 0.00 | 0.00 | 0.00 | 87 | 1018.6 | |
| 20260504023142 | 55 | 0.0 | 0.0 | 0.00 | 0.00 | 0.00 | 86 | 1018.6 | |
| 20260504022518 | 55 | 0.0 | 0.0 | 0.00 | 0.00 | 0.00 | 85 | 1018.6 | |
| 20260504021517 | 55 | 0.0 | 0.0 | 0.00 | 0.00 | 0.00 | 85 | 1018.5 | |
| 20260504020537 | 56 | 0.0 | 0.0 | 0.00 | 0.00 | 0.00 | 84 | 1018.4 | |
| 20260504015517 | 56 | 0.0 | 0.0 | 0.00 | 0.00 | 0.00 | 83 | 1018.3 | |
| 20260504014517 | 57 | 0.0 | 0.0 | 0.00 | 0.00 | 0.00 | 82 | 1018.1 | |
| 20260504013538 | 57 | 0.0 | 0.0 | 0.00 | 0.00 | 0.00 | 81 | 1018.0 | |
| 20260504012518 | 58 | 0.0 | 0.0 | 0.00 | 0.00 | 0.00 | 81 | 1018.0 | |
| 20260504011517 | 58 | 0.0 | 0.0 | 0.00 | 0.00 | 0.00 | 80 | 1017.9 |